Print

CHIHRRCWA 000
TTAA00 KDVN 202204
HOURLY WEATHER ROUNDUP
NATIONAL WEATHER SERVICE QUAD CITIES IA IL
500 PM CDT SAT SEP 20 2014

Note: "Fair" indicates few or no clouds below 12,000 feet with no
significant weather and/or obstructions to visibility.

* - These stations are not NWS stations...and not subject to NWS
quality control.  Some stations do not report weather such as fog.

...NORTHEAST IOWA..................................................

  
CITY           SKY/WX    TMP DP  RH WIND       PRES   REMARKS
DECORAH *      SUNNY     77  59  53 W6G15     29.78F                  
WATERLOO       SUNNY     81  57  43 W13G20    29.79F HX  81           
OELWEIN *      SUNNY     81  57  44 NW15G22   29.81S HX  81           
INDEPENDENCE * MOSUNNY   81  55  41 W16G22    29.81F HX  80           
DUBUQUE        PTSUNNY   76  63  64 W10       29.80S                  

...SOUTHWEST AND SOUTH CENTRAL WISCONSIN...........................

  
CITY           SKY/WX    TMP DP  RH WIND       PRES   REMARKS
PRAIRIE DU CHI SUNNY     80  52  38 W10G18    29.76S HX  80           
BOSCOBEL       MOSUNNY   80  59  48 W10       29.75F HX  81           
LONE ROCK      SUNNY     80  63  55 W10       29.74F HX  81           
MINERAL POINT* MOSUNNY   79  59  50 W14       29.78S HX  80           
MONROE *       MOSUNNY   75  63  64 W17G26    29.78R                  
JANESVILLE *   SUNNY     77  63  61 SW13G18   29.76F                  

...EAST CENTRAL IOWA...............................................

  
CITY           SKY/WX    TMP DP  RH WIND       PRES   REMARKS
MARSHALLTOWN   MOSUNNY   82  58  43 W14       29.82F HX  82           
NEWTON *       SUNNY     82  61  47 W14       29.84F HX  83           
VINTON *       SUNNY     83  56  39 W13G20    29.80F HX  82           
CEDAR RAPIDS   MOSUNNY   79  67  66 SW10      29.80F HX  81           
IOWA CITY      SUNNY     80  66  62 SW10      29.83F HX  82           
MONTICELLO *   NOT AVBL                                               
CLINTON *      PTSUNNY   77  64  65 W15G21    29.84R                  
DAVENPORT      PTSUNNY   77  64  64 W13       29.84R                  

...NORTHWEST ILLINOIS..............................................

  
CITY           SKY/WX    TMP DP  RH WIND       PRES   REMARKS
FREEPORT *     SUNNY     75  67  76 W17       29.81R                  
ROCKFORD       MOSUNNY   75  62  64 SW15      29.79S                  
SAVANNA *      MOSUNNY   77  64  64 W9        29.81R                  
STERLING/R.F.* MOSUNNY   79  66  65 W15       29.80S HX  81           
ROCHELLE *     MOSUNNY   75  65  70 SW13      29.80S                  
MOLINE         PTSUNNY   78  67  68 W9        29.82S HX  80           
PERU *         PTSUNNY   75  69  79 W9        29.82S                  

...SOUTHEAST IOWA AND NORTHEAST MISSOURI...........................

  
CITY           SKY/WX    TMP DP  RH WIND       PRES   REMARKS
KNOXVILLE *    SUNNY     82  64  54 W12G17    29.85S HX  84           
OTTUMWA        PTSUNNY   80  67  64 SW13G20   29.85F HX  82           
FAIRFIELD *    PTSUNNY   79  66  65 SW8       29.86R HX  81           
WASHINGTON *   MOSUNNY   81  68  65 SW9G16    29.84F HX  83           
MT PLEASANT *  MOSUNNY   81  65  57 SW12G18   29.85S HX  83           
BURLINGTON     MOSUNNY   79  69  71 SW14      29.84F HX  81           
KIRKSVILLE     SUNNY     80  71  74 W6        29.91F HX  84           

...WESTERN ILLINOIS................................................

  
CITY           SKY/WX    TMP DP  RH WIND       PRES   REMARKS
MACOMB *       PTSUNNY   79  67  67 SW10      29.88F HX  81           
GALESBURG *    PTSUNNY   79  69  72 SW13G20   29.83F HX  81           
PEORIA         PTSUNNY   80  67  64 W13       29.84F HX  82           
QUINCY         PTSUNNY   82  70  66 W6        29.88F HX  86           

END...
  

USA.gov is the U.S. government's official web portal to all federal, state and local government web resources and services.